Guam Agana, GU

2:01 AM ChST on October 18, 2019 (GMT +1000)
Guam International

Weather History for PGUM - August, 2019

Change the Weather History Date:

Wednesday, August 7, 2019

  Actual Average Record
Temperature  
Mean Temperature 78 °F -  
Max Temperature 82 °F 84 °F 89 °F (2017)
Min Temperature 73 °F 75 °F 73 °F (2004)
Cooling Degree Days 12    
Growing Degree Days 28 (Base 50)    
Moisture  
Dew Point 74 °F    
Average Humidity 84    
Maximum Humidity 93    
Minimum Humidity 74    
Precipitation  
Precipitation 0.01 in - - ()
Sea Level Pressure  
Sea Level Pressure 29.78 in    
Wind  
Wind Speed 7 mph (SW)    
Max Wind Speed 15 mph    
Max Gust Speed -    
Visibility 9 miles    
Events Rain    
Averages and records for this station are not official NWS values.
T = Trace of Precipitation, MM = Missing Value Source: NWS Daily Summary

Daily Weather History Graph

Daily Weather History Graph

Search for Another Location

Airport or City:

Astronomy

Aug. 07, 2019 Rise Set
Actual Time 6:06 AM ChST 6:46 PM ChST
Civil Twilight 5:44 AM ChST 7:08 PM ChST
Nautical Twilight 5:18 AM ChST 7:34 PM ChST
Astronomical Twilight 4:51 AM ChST 8:01 PM ChST
Moon 11:50 AM ChST (8/7) 11:53 PM ChST (8/7)
Length of Visible Light 13h 24m
Length of Day
12h 39m
Waxing Crescent, 43% of the Moon is Illuminated
Aug 7
Waxing Crescent
Aug 8
First Quarter
Aug 15
Full
Aug 24
Last Quarter
Aug 30
New

Hourly Weather History & Observations

Time (ChST) Temp. Heat Index Dew Point Humidity Pressure Visibility Wind Dir Wind Speed Gust Speed Precip Events Conditions
12:30 AM 73.9 °F - 72.0 °F 93% 29.82 in 1.8 mi WSW 11.5 mph - 0.27 in Rain Heavy Rain
12:37 AM 73.9 °F - 71.1 °F 91% 29.82 in 2.5 mi West 9.2 mph - 0.32 in Rain Heavy Rain
12:46 AM 73.0 °F - 70.0 °F 90% 29.81 in 4.0 mi West 8.1 mph - 0.34 in Rain Rain
12:54 AM 73.0 °F - 70.0 °F 90% 29.79 in 5.0 mi WNW 6.9 mph - 0.35 in Rain Rain
1:54 AM 73.9 °F - 70.0 °F 87% 29.76 in 8.0 mi Calm Calm - 0.02 in   Clear
2:54 AM 75.0 °F - 71.1 °F 87% 29.77 in 10.0 mi WSW 4.6 mph - 0.01 in Rain Light Rain
3:54 AM 75.0 °F - 72.0 °F 90% 29.75 in 10.0 mi Calm Calm - 0.00 in Rain Light Rain
4:54 AM 75.0 °F - 72.0 °F 90% 29.75 in 10.0 mi South 3.5 mph - 0.00 in   Clear
5:54 AM 75.0 °F - 72.0 °F 90% 29.76 in 10.0 mi Calm Calm - N/A   Clear
6:54 AM 75.9 °F - 72.0 °F 87% 29.78 in 10.0 mi Calm Calm - N/A   Partly Cloudy
7:54 AM 78.1 °F - 73.9 °F 87% 29.81 in 10.0 mi Calm Calm - N/A   Partly Cloudy
8:54 AM 79.0 °F - 75.9 °F 90% 29.82 in 10.0 mi SSW 3.5 mph - N/A   Mostly Cloudy
9:54 AM 82.0 °F 89.4 °F 75.9 °F 82% 29.81 in 10.0 mi SSW 5.8 mph - N/A   Partly Cloudy
10:54 AM 81.0 °F 86.7 °F 75.0 °F 82% 29.80 in 10.0 mi SW 8.1 mph - 0.01 in   Scattered Clouds
11:46 AM 82.0 °F 89.4 °F 75.9 °F 82% 29.80 in 10.0 mi WSW 12.7 mph - N/A   Mostly Cloudy
11:54 AM 82.0 °F 90.2 °F 77.0 °F 85% 29.78 in 10.0 mi SW 12.7 mph - N/A   Mostly Cloudy
12:03 PM 82.0 °F 89.4 °F 75.9 °F 82% 29.80 in 10.0 mi SW 9.2 mph - N/A   Scattered Clouds
12:54 PM 82.0 °F 87.9 °F 73.9 °F 76% 29.77 in 10.0 mi SW 12.7 mph - N/A   Clear
1:54 PM 82.0 °F 87.9 °F 73.9 °F 76% 29.75 in 10.0 mi SW 15.0 mph - N/A   Partly Cloudy
2:28 PM 81.0 °F 86.7 °F 75.0 °F 82% 29.77 in 10.0 mi WSW 10.4 mph - N/A   Mostly Cloudy
2:54 PM 81.0 °F 86.7 °F 75.0 °F 82% 29.75 in 10.0 mi WSW 11.5 mph - N/A   Overcast
3:54 PM 81.0 °F 86.2 °F 73.9 °F 79% 29.75 in 10.0 mi WSW 11.5 mph - N/A   Scattered Clouds
4:54 PM 80.1 °F 84.5 °F 73.9 °F 81% 29.75 in 10.0 mi West 12.7 mph - N/A   Partly Cloudy
5:54 PM 80.1 °F 84.5 °F 73.9 °F 81% 29.77 in 10.0 mi SW 3.5 mph - N/A   Mostly Cloudy
6:54 PM 80.1 °F 84.2 °F 73.0 °F 79% 29.76 in 10.0 mi SE 3.5 mph - N/A   Clear
7:54 PM 79.0 °F - 73.9 °F 84% 29.77 in 10.0 mi Calm Calm - N/A   Clear
8:54 PM 80.1 °F 84.5 °F 73.9 °F 81% 29.78 in 10.0 mi ESE 3.5 mph - N/A   Clear
9:54 PM 80.1 °F 85.1 °F 75.0 °F 85% 29.81 in 10.0 mi Calm Calm - N/A   Clear
10:54 PM 78.1 °F - 73.9 °F 87% 29.82 in 10.0 mi Calm Calm - N/A   Clear
11:54 PM 78.1 °F - 73.9 °F 87% 29.79 in 10.0 mi SSE 3.5 mph - N/A   Clear